TimeEDT,TemperatureF,Dew PointF,Humidity,Sea Level PressureIn,VisibilityMPH,Wind Direction,Wind SpeedMPH,Gust SpeedMPH,PrecipitationIn,Events,Conditions,WindDirDegrees,DateUTC
12:53 AM,64.9,59.0,81,29.85,10.0,NNE,8.1,-,N/A,,Clear,30,2013-09-26 04:53:00
1:53 AM,64.9,59.0,81,29.85,10.0,NNE,8.1,-,0.00,Rain,Light Rain,30,2013-09-26 05:53:00
2:53 AM,64.0,60.1,87,29.85,10.0,NNE,6.9,-,0.00,,Overcast,30,2013-09-26 06:53:00
3:53 AM,63.0,60.1,90,29.84,10.0,NNE,9.2,-,0.00,,Overcast,30,2013-09-26 07:53:00
4:53 AM,63.0,60.1,90,29.85,10.0,NNE,4.6,-,0.01,Rain,Light Rain,20,2013-09-26 08:53:00
5:53 AM,63.0,60.1,90,29.86,10.0,North,5.8,-,0.00,Rain,Light Rain,10,2013-09-26 09:53:00
6:53 AM,63.0,60.1,90,29.87,10.0,NNE,5.8,-,0.00,Rain,Light Rain,30,2013-09-26 10:53:00
7:53 AM,63.0,60.1,90,29.88,10.0,North,5.8,-,0.00,,Overcast,360,2013-09-26 11:53:00
8:53 AM,64.9,60.1,84,29.89,10.0,NE,9.2,-,N/A,,Overcast,40,2013-09-26 12:53:00
9:53 AM,71.1,60.1,68,29.90,10.0,NNE,10.4,-,N/A,,Clear,20,2013-09-26 13:53:00
10:53 AM,73.9,57.9,57,29.91,10.0,NNE,12.7,-,N/A,,Clear,30,2013-09-26 14:53:00
11:53 AM,75.9,57.9,54,29.91,10.0,North,9.2,-,N/A,,Clear,360,2013-09-26 15:53:00
12:53 PM,75.9,57.9,54,29.90,10.0,NNW,8.1,-,N/A,,Partly Cloudy,340,2013-09-26 16:53:00
1:53 PM,78.1,57.9,50,29.89,10.0,NNE,6.9,-,N/A,,Partly Cloudy,30,2013-09-26 17:53:00
2:53 PM,78.1,57.9,50,29.88,10.0,North,6.9,-,N/A,,Scattered Clouds,360,2013-09-26 18:53:00
3:53 PM,78.1,57.9,50,29.88,10.0,NNE,8.1,-,N/A,,Scattered Clouds,20,2013-09-26 19:53:00
4:53 PM,78.1,59.0,52,29.88,10.0,North,12.7,16.1,N/A,,Overcast,10,2013-09-26 20:53:00
5:53 PM,75.9,57.9,54,29.90,10.0,North,9.2,-,N/A,,Overcast,10,2013-09-26 21:53:00
6:53 PM,75.0,59.0,57,29.91,10.0,North,5.8,-,N/A,,Overcast,10,2013-09-26 22:53:00
7:53 PM,71.1,59.0,66,29.93,10.0,North,5.8,-,N/A,,Overcast,360,2013-09-26 23:53:00
8:53 PM,69.1,57.9,68,29.95,10.0,NNE,6.9,-,N/A,,Clear,20,2013-09-27 00:53:00
9:53 PM,66.0,57.9,75,29.96,10.0,NNE,8.1,-,N/A,,Clear,30,2013-09-27 01:53:00
10:53 PM,64.9,57.9,78,29.98,10.0,NE,9.2,-,N/A,,Clear,40,2013-09-27 02:53:00
11:53 PM,64.0,57.9,80,29.98,10.0,NNE,9.2,-,N/A,,Clear,30,2013-09-27 03:53:00